Location: Newark
(47.4417°N, 1.1394°W)
Time: 21:08:47
(UTC+00:00)

Envisat - Pass Details

Date: 21 November 2019
Orbit: 764 x 766 km, 98.1° (Epoch: 06 December)

Event Time Altitude Azimuth Distance (km) Brightness Sun altitude
Rises 06:24:02 0° 20° (NNE) 3,243 6.3 -9.0°
Reaches altitude 10° 06:26:30 10° 28° (NNE) 2,312 5.6 -8.6°
Maximum altitude 06:31:16 39° 97° (E) 1,135 4.6 -7.9°
Drops below altitude 10° 06:35:59 10° 166° (SSE) 2,295 6.0 -7.1°
Sets 06:38:25 0° 174° (S) 3,216 6.6 -6.8°
